Weather History for KCPC - January, 2013

Change the Weather History Date:

Sunday, January 27, 2013

  Actual Average (KLBT) Record (KLBT)
Temperature  
Mean Temperature 36 °F 44 °F  
Max Temperature 46 °F 54 °F 71 °F (1999)
Min Temperature 26 °F 33 °F 17 °F (2000)
Degree Days  
Heating Degree Days 29 21  
Month to date heating degree days 588  
Since 1 July heating degree days 1638  
Cooling Degree Days 0 0  
Month to date cooling degree days 0  
Year to date cooling degree days 0  
Moisture  
Dew Point 27 °F    
Average Humidity 74    
Maximum Humidity 96    
Minimum Humidity 44    
Precipitation  
Precipitation 0.00 in 0.13 in 0.28 in (2012)
Month to date precipitation 2.50  
Year to date precipitation 2.50  
Sea Level Pressure  
Sea Level Pressure 30.50 in    
Wind  
Wind Speed 2 mph (NE)    
Max Wind Speed 9 mph    
Max Gust Speed -    
Visibility 7 miles    
Events      
T = Trace of Precipitation, MM = Missing Value Source: NWS Daily Summary

Daily Weather History Graph

Daily Weather History Graph

Search for Another Location

Airport or City:

Trip Planner

Search our weather history database for the weather conditions in past years. The results will help you decide how hot, cold, wet, or windy it might be!

Date:

Astronomy

Jan. 27, 2013 Rise Set
Actual Time 7:15 AM EST 5:40 PM EST
Civil Twilight 6:48 AM EST 6:06 PM EST
Nautical Twilight 6:18 AM EST 6:37 PM EST
Astronomical Twilight 5:48 AM EST 7:06 PM EST
Moon 6:27 PM EST 7:11 AM EST
Length of Visible Light 11h 17m
Length of Day
10h 24m
Full, 100% of the Moon is Illuminated
Jan 27
Full
Feb 3
Last Quarter
Feb 10
New
Feb 17
First Quarter
Feb 25
Full

Hourly Weather History & Observations

Time (EST) Temp. Windchill Dew Point Humidity Pressure Visibility Wind Dir Wind Speed Gust Speed Precip Events Conditions
12:15 AM 30.4 °F - 28.4 °F 92% 30.39 in 5.0 mi Calm Calm - N/A   Clear
12:35 AM 30.2 °F - 28.4 °F 93% 30.39 in 5.0 mi Calm Calm - N/A   Clear
12:55 AM 30.2 °F - 28.4 °F 93% 30.39 in 4.0 mi Calm Calm - N/A   Clear
1:15 AM 29.3 °F 25.6 °F 27.7 °F 94% 30.39 in 3.0 mi North 3.5 mph - N/A   Mist
1:35 AM 30.2 °F - 28.8 °F 94% 30.40 in 4.0 mi Calm Calm - N/A   Clear
1:55 AM 29.3 °F - 28.0 °F 95% 30.41 in 4.0 mi Calm Calm - N/A   Clear
2:15 AM 29.7 °F - 28.4 °F 95% 30.42 in 3.0 mi Calm Calm - N/A   Mist
2:35 AM 28.9 °F - 27.5 °F 94% 30.42 in 3.0 mi Calm Calm - N/A   Mist
2:55 AM 29.1 °F - 28.0 °F 96% 30.42 in 3.0 mi Calm Calm - N/A   Mist
3:15 AM 28.6 °F - 27.5 °F 96% 30.42 in 2.5 mi Calm Calm - N/A   Mist
3:35 AM 28.9 °F - 27.9 °F 96% 30.43 in 3.0 mi Calm Calm - N/A   Mist
3:55 AM 28.8 °F - 27.7 °F 96% 30.42 in 3.0 mi Calm Calm - N/A   Mist
4:15 AM 28.8 °F - 27.7 °F 96% 30.43 in 3.0 mi Calm Calm - N/A   Mist
4:35 AM 28.9 °F - 27.9 °F 96% 30.43 in 4.0 mi Calm Calm - N/A   Clear
4:55 AM 28.8 °F - 27.5 °F 95% 30.44 in 4.0 mi Calm Calm - N/A   Clear
5:15 AM 28.8 °F - 27.1 °F 94% 30.44 in 5.0 mi Calm Calm - N/A   Clear
5:35 AM 28.4 °F - 26.8 °F 94% 30.44 in 5.0 mi Calm Calm - N/A   Clear
5:55 AM 28.4 °F 24.6 °F 26.6 °F 93% 30.45 in 5.0 mi NE 3.5 mph - N/A   Clear
6:15 AM 28.0 °F 22.8 °F 25.7 °F 91% 30.46 in 7.0 mi NE 4.6 mph - N/A   Clear
6:35 AM 27.5 °F 22.2 °F 25.2 °F 91% 30.47 in 5.0 mi NE 4.6 mph - N/A   Clear
6:55 AM 27.3 °F - 24.8 °F 90% 30.48 in 5.0 mi Calm Calm - N/A   Clear
7:15 AM 27.0 °F 23.0 °F 24.6 °F 91% 30.49 in 5.0 mi NE 3.5 mph - N/A   Clear
7:35 AM 26.8 °F 22.8 °F 24.8 °F 92% 30.50 in 4.0 mi NNE 3.5 mph - N/A   Clear
7:55 AM 27.3 °F 23.4 °F 25.0 °F 91% 30.51 in 4.0 mi NE 3.5 mph - N/A   Clear
8:15 AM 27.9 °F 22.6 °F 25.3 °F 90% 30.51 in 4.0 mi NNE 4.6 mph - N/A   Clear
8:35 AM 27.9 °F 19.8 °F 25.2 °F 90% 30.52 in 4.0 mi NE 8.1 mph - N/A   Clear
8:55 AM 28.4 °F 20.4 °F 26.2 °F 92% 30.52 in 3.0 mi NE 8.1 mph - N/A   Mist
9:15 AM 29.5 °F 24.5 °F 26.8 °F 90% 30.54 in 4.0 mi NE 4.6 mph - N/A   Clear
9:35 AM 31.5 °F 25.8 °F 27.5 °F 85% 30.55 in 4.0 mi NE 5.8 mph - N/A   Clear
9:55 AM 32.4 °F 26.0 °F 28.0 °F 84% 30.56 in 5.0 mi NE 6.9 mph - N/A   Clear
10:15 AM 33.8 °F 26.4 °F 27.7 °F 78% 30.57 in 5.0 mi NE 9.2 mph - N/A   Haze
10:35 AM 35.4 °F 29.7 °F 28.0 °F 75% 30.57 in 7.0 mi NNE 6.9 mph - N/A   Clear
10:55 AM 36.5 °F 29.7 °F 27.5 °F 70% 30.57 in 7.0 mi NE 9.2 mph - N/A   Clear
11:15 AM 38.1 °F 32.9 °F 26.8 °F 64% 30.56 in 10.0 mi ENE 6.9 mph - N/A   Clear
11:35 AM 39.4 °F 33.2 °F 26.1 °F 59% 30.56 in 10.0 mi ENE 9.2 mph - N/A   Clear
11:55 AM 40.3 °F 34.9 °F 25.7 °F 56% 30.56 in 10.0 mi East 8.1 mph - N/A   Clear
12:15 PM 41.2 °F 38.2 °F 25.5 °F 54% 30.55 in 10.0 mi North 4.6 mph - N/A   Clear
12:35 PM 41.7 °F - 25.3 °F 52% 30.55 in 10.0 mi Calm Calm - N/A   Clear
12:55 PM 42.4 °F 40.7 °F 25.9 °F 52% 30.53 in 10.0 mi East 3.5 mph - N/A   Clear
1:15 PM 42.6 °F 38.4 °F 25.5 °F 51% 30.52 in 10.0 mi ENE 6.9 mph - N/A   Clear
1:35 PM 43.9 °F 42.3 °F 25.7 °F 49% 30.51 in 10.0 mi North 3.5 mph - N/A   Clear
1:55 PM 43.9 °F - 25.3 °F 48% 30.52 in 10.0 mi Calm Calm - N/A   Clear
2:15 PM 44.6 °F 43.1 °F 25.0 °F 46% 30.51 in 10.0 mi ENE 3.5 mph - N/A   Clear
2:35 PM 44.6 °F 40.7 °F 25.2 °F 46% 30.51 in 10.0 mi NE 6.9 mph - N/A   Clear
2:55 PM 44.8 °F 42.4 °F 24.6 °F 45% 30.51 in 10.0 mi North 4.6 mph - N/A   Clear
3:15 PM 45.5 °F 41.8 °F 25.3 °F 45% 30.51 in 10.0 mi NE 6.9 mph - N/A   Clear
3:35 PM 45.1 °F 43.7 °F 24.4 °F 44% 30.52 in 10.0 mi North 3.5 mph - N/A   Clear
3:55 PM 45.0 °F 41.8 °F 24.8 °F 45% 30.52 in 10.0 mi NNE 5.8 mph - N/A   Clear
4:15 PM 46.2 °F 44.1 °F 25.3 °F 44% 30.52 in 10.0 mi NNE 4.6 mph - N/A   Clear
4:35 PM 45.0 °F 43.5 °F 25.0 °F 46% 30.50 in 10.0 mi NE 3.5 mph - N/A   Clear
4:55 PM 44.6 °F 42.2 °F 25.9 °F 48% 30.51 in 10.0 mi NE 4.6 mph - N/A   Clear
5:15 PM 43.3 °F 41.7 °F 25.7 °F 50% 30.52 in 10.0 mi NNE 3.5 mph - N/A   Clear
5:35 PM 42.8 °F - 26.1 °F 52% 30.52 in 10.0 mi Calm Calm - N/A   Clear
5:55 PM 41.2 °F - 26.4 °F 56% 30.52 in 10.0 mi Calm Calm - N/A   Clear
6:15 PM 40.6 °F - 27.1 °F 59% 30.53 in 10.0 mi Calm Calm - N/A   Clear
6:35 PM 38.5 °F - 27.3 °F 64% 30.53 in 10.0 mi Calm Calm - N/A   Clear
6:55 PM 37.4 °F - 27.5 °F 67% 30.53 in 10.0 mi Calm Calm - N/A   Clear
7:15 PM 36.7 °F - 27.5 °F 69% 30.53 in 10.0 mi Calm Calm - N/A   Clear
7:35 PM 35.8 °F 33.0 °F 27.1 °F 71% 30.52 in 10.0 mi NE 3.5 mph - N/A   Clear
7:55 PM 37.6 °F - 26.4 °F 64% 30.54 in 10.0 mi Calm Calm - N/A   Clear
8:15 PM 36.0 °F 33.3 °F 26.2 °F 68% 30.53 in 10.0 mi ENE 3.5 mph - N/A   Clear
8:35 PM 36.5 °F 32.7 °F 26.1 °F 66% 30.52 in 10.0 mi East 4.6 mph - N/A   Clear
8:55 PM 35.8 °F - 26.2 °F 68% 30.52 in 10.0 mi Calm Calm - N/A   Clear
9:15 PM 35.6 °F 32.8 °F 26.6 °F 70% 30.52 in 10.0 mi NE 3.5 mph - N/A   Clear
9:35 PM 35.4 °F 32.6 °F 26.6 °F 70% 30.52 in 10.0 mi NE 3.5 mph - N/A   Clear
9:55 PM 35.8 °F 33.0 °F 27.0 °F 70% 30.52 in 10.0 mi NE 3.5 mph - N/A   Clear
10:15 PM 35.6 °F 30.7 °F 27.5 °F 72% 30.52 in 10.0 mi NE 5.8 mph - N/A   Clear
10:35 PM 34.9 °F 30.8 °F 27.7 °F 75% 30.52 in 10.0 mi ENE 4.6 mph - N/A   Clear
10:55 PM 34.7 °F 30.6 °F 27.3 °F 74% 30.52 in 10.0 mi NE 4.6 mph - N/A   Clear
11:15 PM 34.9 °F - 26.8 °F 72% 30.52 in 10.0 mi Calm Calm - N/A   Clear
11:35 PM 34.2 °F - 27.0 °F 75% 30.52 in 10.0 mi Calm Calm - N/A   Clear
11:55 PM 34.3 °F 31.4 °F 27.1 °F 75% 30.51 in 10.0 mi NNE 3.5 mph - N/A   Clear